[[{"header":{"parameterUnit":"m.s-1","parameterCategory":1,"la1":30.2991,"la2":30.254,"lo1":-89.0895,"lo2":-89.0444,"dy":0.0017,"dx":0.0017,"nx":28,"ny":28,"refTime":"2024-03-11T03:00:00:Z","depth":0,"parameterNumber":2,"parameterNumberName":"U-component_of_WINDS"},"data":[0,0,0,0,0,0,0,0,0,0,0,0,0,0,0,0,0,0,0,0,0,0,0,0,0,0,0,0,0,0,0,0,0,0,0,0,0,0,0,0,0,0,0,0,0,0,0,0,0,0,0,0,0,0,0,0,0,0,-3.9718,-3.9717,0,-3.9697,-3.9697,-3.9697,-3.9573,-3.957,-3.9567,-3.9564,-3.9547,-3.955,-3.9552,0,0,0,0,0,0,0,0,0,0,0,0,0,-3.9655,-3.9657,-3.9718,-3.9717,-3.9717,-3.9697,-3.9697,-3.9697,-3.9574,-3.957,-3.9566,-3.9563,-3.9547,-3.9549,-3.9552,0,0,0,0,0,0,0,0,0,0,0,0,0,-3.9664,-3.9658,-3.9718,-3.9653,-3.9647,-3.9697,-3.9697,-3.9696,-3.9575,-3.957,-3.9566,-3.9561,-3.9546,-3.9549,-3.9553,-3.9664,0,0,-3.9563,-3.9565,0,0,0,0,0,0,0,0,-3.9663,-3.9666,-3.9663,-3.9658,-3.9651,-3.9633,-3.9668,-3.9686,-3.9576,-3.9602,-3.9564,-3.9559,-3.958,-3.958,-3.9586,-3.9663,-3.9662,-3.9564,-3.9566,-3.9567,-3.9568,0,0,0,0,0,0,0,-3.9663,-3.9666,-3.971,-3.9663,-3.9656,-3.9627,-3.9623,-3.9671,-3.9617,-3.96,-3.9591,-3.959,-3.9576,-3.9583,-3.9585,-3.9662,-3.9563,-3.9567,-3.9569,-3.957,-3.9831,-3.9836,0,0,0,0,0,0,-3.9671,-3.9667,-3.971,-3.9709,-3.9646,-3.9632,-3.9628,-3.9644,-3.9616,-3.9607,-3.9594,-3.9584,-3.9579,-3.9581,-3.9584,-3.9713,-3.9567,-3.957,-3.9572,-3.9826,-3.9832,-3.9838,0,0,0,0,0,0,-3.967,-3.9676,-3.9711,-3.9685,-3.9688,-3.9638,-3.9657,-3.9645,-3.9653,-3.9611,-3.9601,-3.9611,-3.9576,-3.9579,-3.9645,-3.9711,-3.9572,-3.9575,-3.9821,-3.9828,-3.9835,-3.9973,0,0,0,0,0,0,-3.9669,-3.9676,-3.9717,-3.9687,-3.9689,-3.9771,-3.9661,-3.9648,-3.9659,-3.9646,-3.9625,-3.9617,-3.9573,-3.964,-3.9649,-3.9713,-3.9578,-3.9815,-3.9824,-3.9833,-3.9962,-3.9984,-4.0002,0,0,0,0,0,-3.9667,-3.9757,-3.9719,-3.9725,-3.9739,-3.9775,-3.9777,-3.9723,-3.9664,-3.9705,-3.9679,-3.9618,-3.9703,-3.9648,-3.9656,-3.9723,-3.981,-3.9821,-3.9832,-3.9953,-3.998,-4.0002,0,0,0,0,0,0,-3.9796,-3.9752,-3.971,-3.9792,-3.9789,-3.9754,-3.9804,-3.9752,-3.9766,-3.9754,-3.9688,-3.9684,-3.9761,-3.9748,-3.9689,-3.983,-3.9746,-3.9759,-3.9835,-3.986,-3.988,-3.9882,-3.9581,0,0,0,0,0,-3.9834,-3.9866,-3.9826,-3.9903,-3.9903,-3.9855,-3.9869,-3.9828,-3.9821,-3.9819,-3.9798,-3.9795,-3.9821,-3.984,-3.9862,-3.996,-3.9955,-4.001,-4.003,-4.0047,-4.0059,-4.0112,-4.0137,-3.9873,-3.9873,-3.9873,0,0,-3.9913,-3.9893,-3.9917,-3.9929,-3.9921,-3.9957,-3.9854,-3.9896,-3.9923,-3.9826,-3.9887,-3.9872,-3.9865,-3.9948,-3.9983,-3.994,-4.0131,-4.0061,-4.0075,-4.0078,-4.0126,-4.0151,-4.0173,-3.9881,-3.9879,-3.9878,0,0,-4.0075,-4.0063,-4.0126,-4.0121,-4.011,-4.0077,-4.0093,-4.0067,-4.0053,-4.0113,-4.0041,-4.0073,-4.0119,-4.0118,-4.0123,-4.0288,-4.0233,-4.0298,-4.0403,-4.0455,-4.0476,-4.0494,-4.0554,-4.0576,-4.031,-4.031,-4.031,0,-4.0175,-4.0225,-4.0166,-4.0213,-4.0221,-4.0134,-4.0199,-4.0197,-4.0195,-4.0204,-4.0155,-4.0212,-4.0201,-4.0284,-4.0324,-4.0331,-4.0348,-4.0299,-4.0478,-4.0495,-4.0511,-4.0568,-4.059,-4.0318,-4.0317,-4.0316,-4.0316,0,-4.0349,-4.0386,-4.0439,-4.0438,-4.0452,-4.0508,-4.0458,-4.048,-4.0439,-4.0412,-4.0476,-4.046,-4.0478,-4.0495,-4.0455,-4.0573,-4.0546,-4.0489,-4.0403,-4.0545,-4.0597,-4.0618,-4.0329,-4.0327,-4.0324,-4.0322,0,0,-4.0591,-4.0558,-4.0578,-4.0578,-4.0561,-4.0588,-4.0642,-4.0658,-4.0679,-4.0681,-4.0726,-4.0768,-4.0715,-4.0721,-4.0681,-4.0727,-4.0861,-4.0664,-4.0663,-4.0702,-4.0991,-4.1035,-4.1061,-4.0824,-4.0828,-4.0831,-4.0992,0,-4.0747,-4.0835,-4.0783,-4.0879,-4.0913,-4.0833,-4.088,-4.0876,-4.0853,-4.088,-4.0855,-4.0887,-4.0814,-4.0817,-4.0859,-4.0835,-4.0918,-4.0823,-4.0866,-4.0868,-4.087,-4.1087,-4.1133,-4.1286,-4.1012,-4.1015,-4.1018,0,-4.094,-4.0951,-4.105,-4.1028,-4.104,-4.1083,-4.1095,-4.1122,-4.1116,-4.1097,-4.1105,-4.1054,-4.1107,-4.1023,-4.1096,-4.1033,-4.1048,-4.1039,-4.1044,-4.1045,-4.0952,-4.1096,-4.1333,-4.1356,-4.1049,-4.1046,-4.1044,0,-4.1108,-4.1147,-4.1211,-4.1213,-4.1189,-4.1222,-4.1213,-4.1203,-4.1217,-4.1229,-4.1238,-4.1256,-4.1266,-4.1282,-4.1239,-4.1181,-4.1319,-4.123,-4.1305,-4.1307,-4.1337,-4.1336,-4.1581,-4.1347,-4.1347,-4.1346,-4.1346,0,-4.1288,-4.1352,-4.1286,-4.1326,-4.1396,-4.1338,-4.141,-4.1393,-4.1386,-4.1423,-4.1355,-4.1391,-4.1331,-4.1362,-4.1328,-4.1395,-4.14,-4.1387,-4.1378,-4.1393,-4.1395,-4.1402,-4.1391,-4.1352,-4.1351,-4.135,-4.1349,0,-4.1486,-4.1445,-4.151,-4.1482,-4.1477,-4.153,-4.1507,-4.1544,-4.1518,-4.1565,-4.1573,-4.1532,-4.1565,-4.1523,-4.1553,-4.153,-4.1622,-4.1596,-4.1623,-4.1616,-4.1694,-4.1688,-4.1952,-4.1984,-4.173,-4.1732,-4.1734,0,-4.1604,-4.1651,-4.1629,-4.1648,-4.1644,-4.1676,-4.169,-4.1635,-4.1653,-4.1652,-4.169,-4.1717,-4.1736,-4.1793,-4.1767,-4.179,-4.1765,-4.1856,-4.1768,-4.1783,-4.1767,-4.1765,-4.177,-4.1874,-4.1877,-4.1879,-4.1881,0,-4.1817,-4.1794,-4.1816,-4.1833,-4.1851,-4.1861,-4.1866,-4.1887,-4.183,-4.1854,-4.1887,-4.1901,-4.1932,-4.1961,-4.1977,-4.197,-4.1918,-4.191,-4.1928,-4.1945,-4.1959,-4.1954,-4.1673,-4.1904,-4.1901,-4.19,-4.1899,-4.1898,-4.1978,-4.2018,-4.2008,-4.2036,-4.2034,-4.2042,-4.2075,-4.2053,-4.2079,-4.2099,-4.2066,-4.2108,-4.2104,-4.212,-4.2119,-4.2153,-4.2114,-4.2141,-4.2148,-4.2155,-4.2168,-4.1954,-4.2156,-4.2155,-4.2154,-4.2154,-4.2153,0,-4.2189,-4.2179,-4.2205,-4.2215,-4.2238,-4.2185,-4.2189,-4.2212,-4.2249,-4.2249,-4.227,-4.2309,-4.2337,-4.2314,-4.2338,-4.2369,-4.2346,-4.2377,-4.2374,-4.2374,-4.2201,-4.2182,-4.2396,-4.2396,-4.2396,-4.2396,-4.2396,-4.2396,-4.2301,-4.2364,-4.2342,-4.2405,-4.2395,-4.2435,-4.2442,-4.2449,-4.2449,-4.2495,-4.2518,-4.2502,-4.2494,-4.2517,-4.2542,-4.2534,-4.2547,-4.2587,-4.2572,-4.241,-4.2386,-4.2363,-4.2346,-4.259,-4.259,-4.2742,-4.2744,-4.2745]},{"header":{"parameterUnit":"m.s-1","parameterCategory":1,"la1":30.2991,"la2":30.254,"lo1":-89.0895,"lo2":-89.0444,"dy":0.0017,"dx":0.0017,"nx":28,"ny":28,"refTime":"2024-03-11T03:00:00:Z","depth":0,"parameterNumber":3,"parameterNumberName":"V-component_of_WINDS"},"data":[0,0,0,0,0,0,0,0,0,0,0,0,0,0,0,0,0,0,0,0,0,0,0,0,0,0,0,0,0,0,0,0,0,0,0,0,0,0,0,0,0,0,0,0,0,0,0,0,0,0,0,0,0,0,0,0,0,0,0.265,0.2649,0,0.2605,0.2605,0.2604,0.262,0.2621,0.2622,0.2623,0.2574,0.2572,0.257,0,0,0,0,0,0,0,0,0,0,0,0,0,0.2747,0.2745,0.265,0.2649,0.2649,0.2605,0.2605,0.2604,0.262,0.2621,0.2622,0.2623,0.2575,0.2572,0.257,0,0,0,0,0,0,0,0,0,0,0,0,0,0.2704,0.2745,0.265,0.2651,0.2651,0.2606,0.2605,0.2604,0.2619,0.2621,0.2622,0.2624,0.2576,0.2573,0.2569,0.2519,0,0,0.2559,0.2558,0,0,0,0,0,0,0,0,0.2706,0.27,0.2652,0.2651,0.2651,0.262,0.2621,0.2575,0.2619,0.2631,0.2623,0.2625,0.2588,0.2584,0.2572,0.2517,0.2515,0.2559,0.2557,0.2556,0.2555,0,0,0,0,0,0,0,0.2709,0.2702,0.2632,0.2651,0.265,0.2654,0.2649,0.2613,0.2602,0.263,0.2631,0.2626,0.2588,0.2575,0.2571,0.2514,0.2559,0.2556,0.2554,0.2553,0.2415,0.2414,0,0,0,0,0,0,0.2713,0.2705,0.2634,0.2631,0.2683,0.2651,0.2646,0.2628,0.2602,0.26,0.2625,0.2627,0.258,0.2575,0.2569,0.2508,0.2556,0.2552,0.2551,0.2417,0.2415,0.2413,0,0,0,0,0,0,0.2715,0.2706,0.2635,0.2668,0.2659,0.2648,0.2628,0.2626,0.2614,0.2598,0.2596,0.2614,0.2581,0.2574,0.2532,0.2507,0.2551,0.2548,0.2419,0.2416,0.2414,0.2386,0,0,0,0,0,0,0.2717,0.2707,0.2688,0.2668,0.2657,0.2599,0.2626,0.2625,0.2608,0.2611,0.2587,0.2585,0.2582,0.2537,0.2528,0.2503,0.2545,0.2421,0.2418,0.2415,0.2389,0.2383,0.2378,0,0,0,0,0,0.2721,0.2681,0.2687,0.2678,0.2633,0.2597,0.2591,0.259,0.2606,0.2587,0.2577,0.2585,0.2512,0.2532,0.2523,0.2496,0.2422,0.2419,0.2415,0.2392,0.2384,0.2378,0,0,0,0,0,0,0.2697,0.2678,0.2684,0.2637,0.2619,0.26,0.2575,0.2582,0.2558,0.2561,0.2559,0.2554,0.251,0.2499,0.2522,0.2446,0.2469,0.2464,0.2455,0.2447,0.2442,0.2444,0.2543,0,0,0,0,0,0.2687,0.2659,0.2644,0.2604,0.2594,0.2586,0.2571,0.2571,0.2552,0.2544,0.2531,0.2511,0.2484,0.2465,0.2439,0.2388,0.2383,0.2366,0.236,0.2355,0.235,0.2322,0.2314,0.2401,0.2401,0.2401,0,0,0.2664,0.265,0.2633,0.2599,0.2585,0.2556,0.258,0.2548,0.2527,0.2539,0.2498,0.2488,0.2466,0.2419,0.2398,0.2409,0.2325,0.2351,0.2347,0.2344,0.2318,0.2309,0.2302,0.2398,0.2399,0.2399,0,0,0.2608,0.2595,0.256,0.2546,0.2525,0.252,0.2512,0.2493,0.2487,0.2446,0.2455,0.243,0.2382,0.2366,0.2352,0.2292,0.2298,0.2283,0.2252,0.2226,0.2219,0.2213,0.2191,0.2183,0.2278,0.2278,0.2278,0,0.2582,0.254,0.2541,0.2509,0.2493,0.2505,0.2469,0.2455,0.2426,0.2415,0.2429,0.237,0.2356,0.2305,0.2291,0.2279,0.2269,0.2285,0.222,0.2214,0.2208,0.2187,0.2179,0.2276,0.2277,0.2277,0.2277,0,0.2509,0.2479,0.2453,0.2427,0.2408,0.2375,0.237,0.2352,0.2355,0.2349,0.2307,0.2291,0.2262,0.2251,0.2253,0.2201,0.2208,0.2221,0.2243,0.2198,0.2178,0.217,0.2274,0.2274,0.2275,0.2275,0,0,0.2434,0.241,0.24,0.2388,0.2367,0.2344,0.2311,0.2284,0.2268,0.2248,0.222,0.2181,0.2192,0.2176,0.2177,0.2153,0.2106,0.2169,0.2168,0.2157,0.2048,0.2038,0.2028,0.2112,0.211,0.2109,0.2049,0,0.2375,0.2318,0.2319,0.2265,0.2238,0.225,0.2221,0.2205,0.2199,0.2175,0.2168,0.214,0.2158,0.2148,0.2126,0.2117,0.2084,0.2121,0.2084,0.2083,0.2088,0.2018,0.2006,0.1951,0.2042,0.204,0.2039,0,0.2298,0.2277,0.2222,0.2205,0.2194,0.2168,0.2144,0.2121,0.2103,0.21,0.2083,0.2087,0.2054,0.2079,0.2032,0.2057,0.2043,0.2036,0.2034,0.2029,0.2057,0.201,0.1933,0.1924,0.2027,0.2028,0.2029,0,0.2248,0.2206,0.2168,0.2157,0.2137,0.2119,0.211,0.2093,0.2077,0.2056,0.2045,0.202,0.2006,0.1986,0.1983,0.2002,0.1936,0.1961,0.1932,0.1932,0.1916,0.1917,0.1834,0.1909,0.1909,0.1909,0.1909,0,0.2182,0.2147,0.2145,0.2121,0.2082,0.2084,0.2046,0.2038,0.2024,0.1998,0.2007,0.1983,0.1982,0.1957,0.1955,0.1916,0.191,0.1906,0.1906,0.1904,0.1905,0.1893,0.1897,0.1907,0.1908,0.1908,0.1908,0,0.2118,0.2116,0.2074,0.2059,0.2055,0.2027,0.2014,0.1991,0.1987,0.1955,0.1947,0.194,0.1911,0.1908,0.1874,0.1872,0.1826,0.183,0.1832,0.1832,0.1802,0.1805,0.1709,0.1696,0.178,0.1779,0.1779,0,0.2075,0.2048,0.2032,0.2016,0.2006,0.198,0.1964,0.1965,0.1948,0.1927,0.1906,0.1879,0.1857,0.181,0.1801,0.1776,0.1779,0.1747,0.1774,0.1774,0.1777,0.1778,0.1775,0.1741,0.174,0.1739,0.1738,0,0.1998,0.1999,0.1976,0.1953,0.1934,0.1915,0.1898,0.1884,0.1884,0.1864,0.1835,0.1818,0.1785,0.1757,0.1732,0.1722,0.1729,0.173,0.1722,0.1719,0.1721,0.1719,0.1815,0.1732,0.1732,0.1733,0.1733,0.1734,0.1943,0.192,0.1905,0.1879,0.1867,0.1851,0.1829,0.1823,0.1799,0.1772,0.1775,0.1743,0.1727,0.1694,0.1682,0.1657,0.1668,0.1656,0.1652,0.1649,0.1646,0.1727,0.1653,0.1653,0.1653,0.1653,0.1653,0,0.1866,0.1857,0.1834,0.181,0.179,0.1801,0.1783,0.1765,0.1737,0.1722,0.17,0.1668,0.1641,0.1632,0.1606,0.1588,0.159,0.1581,0.1581,0.1579,0.1638,0.1648,0.1579,0.1579,0.1579,0.1579,0.1579,0.1579,0.1823,0.1785,0.1784,0.1741,0.1732,0.1702,0.169,0.1676,0.1664,0.1627,0.1606,0.16,0.1587,0.156,0.1537,0.1534,0.1524,0.1512,0.1511,0.1567,0.1574,0.1581,0.159,0.151,0.151,0.1454,0.1453,0.1453]}]]